Regional Weather Roundup
Issued by NWS

Home | Current Version | Previous Version | Text Only | Print | Product List | Glossary On
Versions: 1 2 3 4 5 6 7 8 9 10 11 12 13 14 15 16 17 18 19 20 21 22 23 24 25 26 27 28 29 30 31 32 33 34 35 36 37 38 39 40 41 42 43 44 45 46 47 48 49 50
000
ASUS43 KLOT 030808
RWRIL

ILLINOIS REGIONAL WEATHER ROUNDUP
NATIONAL WEATHER SERVICE CHICAGO/ROMEOVILLE IL
200 AM CST FRI DEC 03 2021

NOTE: "FAIR" INDICATES FEW OR NO CLOUDS BELOW 12,000 FEET WITH NO
SIGNIFICANT WEATHER AND/OR OBSTRUCTIONS TO VISIBILITY.

* THESE STATIONS ARE NOT UNDER NWS QUALITY CONTROL. THEY ALSO MAY NOT
  REPORT WEATHER SUCH AS PRECIPITATION OR FOG.

ILZ001-002-007-009-015-016-024-030900-
NORTHWEST ILLINOIS

CITY           SKY/WX    TMP DP  RH WIND       PRES   REMARKS
MOLINE         PTCLDY    32  28  85 SE3       30.01S
STERLING*      PTCLDY    37  31  78 CALM      30.04F
SAVANNA*       CLOUDY    37  32  81 CALM      30.04F
$$

ILZ003-004-008-010-011-017-018-030900-
NORTH CENTRAL ILLINOIS

CITY           SKY/WX    TMP DP  RH WIND       PRES   REMARKS
ROCKFORD       CLOUDY    44  27  51 E3        30.05S
FREEPORT*      CLOUDY    41  34  76 CALM      30.06R
ROCHELLE*      CLOUDY    40  29  65 NE5       30.06R
DE KALB*       CLOUDY    40  30  67 CALM      30.05R
PERU*          CLEAR     39  31  73 N3        30.03F
$$

ILZ005-006-012>014-019>023-030900-
NORTHEAST ILLINOIS

CITY           SKY/WX    TMP DP  RH WIND       PRES   REMARKS
CHICAGO-OHARE  CLOUDY    44  29  55 N7        30.04R
CHICAGO-MIDWAY CLOUDY    46  35  65 SW5       30.05R
AURORA         CLOUDY    40  30  67 NE3       30.04R
JOLIET*        CLOUDY    43  34  71 SE3       30.06R
WAUKEGAN       CLOUDY    41  31  67 CALM      30.04R
DUPAGE AIRPORT CLOUDY    43  27  53 CALM      30.04R
KANKAKEE*      CLEAR     36  34  93 CALM      30.06R
WHEELING       CLOUDY    45  26  47 CALM      30.06R
MORRIS*        PTCLDY    37  32  82 CALM      30.04R
ROMEOVILLE*    CLOUDY    41  33  73 SE3       30.05R
LANSING*       CLOUDY    40  36  86 S3        30.05R
NORTHERLY ISL*   N/A     45  37  73 SW2         N/A
$$

LMZ740>746-030900-
SOUTHERN LAKE MICHIGAN

STATION/POSITION SKY/WX   TEMP    WIND        PRES    VSBY  WAVE
                          AIR SEA DIR/SP/G                  HT/PER
                          (F)     (DEG/KT/KT) (MB)    (MI)  (FT/S)
SOUTHERN BUOY              44 46  320/  2/  2 1017.4R         3/ 6
HARRISON CRIB              44     240/  3/  4   N/A
NORTHERLY ISL              45      CALM  /  5   N/A
CALUMET HARBOR             44      10/  4/  5 1015.7F
BURNS HARBOR               43     170/  3/  4 1017.6F
MICHIGAN CITY              42     180/  4/  5 1018.1F
$$

ILZ025>027-034>036-040-047-049-050-058-095>099-030900-
WEST-CENTRAL ILLINOIS

CITY           SKY/WX    TMP DP  RH WIND       PRES   REMARKS
QUINCY         CLEAR     43  31  62 E8        29.97S
GALESBURG*     CLEAR     41  33  73 E7        30.00F
MACOMB*        CLEAR     34  28  80 E5        30.01S WCI  30
JACKSONVILLE*    N/A     35  32  88 E8        29.99F WCI  29
PITTSFIELD*    PTCLDY    42  32  66 E3        29.99S
$$

ILZ028>032-037-038-041>044-048-051>054-059>061-030900-
CENTRAL ILLINOIS

CITY           SKY/WX    TMP DP  RH WIND       PRES   REMARKS
PONTIAC        CLOUDY    36  33  90 CALM      30.04S
BLOOMINGTON    CLEAR     37  30  75 CALM      30.02F
DECATUR        CLEAR     35  32  88 E5        30.02F WCI  31
PEORIA         CLEAR     37  28  70 NE8       30.00F WCI  31
LACON*         PTCLDY    33  30  89 CALM      30.03R
LINCOLN*       CLEAR     35  33  94 E6        30.01F WCI  29
SPRINGFIELD    CLEAR     40  30  67 E7        30.01F
TAYLORVILLE    CLEAR     43  32  65 E5        30.00F
$$

ILZ033-039-045-046-055>057-062-063-030900-
EAST-CENTRAL ILLINOIS

CITY           SKY/WX    TMP DP  RH WIND       PRES   REMARKS
CHAMPAIGN      CLEAR     35  32  88 E5        30.03F WCI  31
DANVILLE*      PTCLDY    37  33  84 CALM      30.06R
RANTOUL*       MOCLDY    36  33  88 MISG      30.04S
MATTOON        PTCLDY    39  35  86 E3        30.02F
PARIS*         CLEAR     33  33 100 CALM      30.05S
$$

ILZ079-100>102-030900-
SOUTHWEST ILLINOIS

CITY           SKY/WX    TMP DP  RH WIND       PRES   REMARKS
ALTON          PTCLDY    40  37  88 CALM      29.98F
CAHOKIA*       CLEAR     42  39  89 CALM      29.97F
SPARTA*        CLEAR     49  41  73 SE5       29.99F
$$

ILZ064>066-069>071-074>076-080>082-084>086-088>090-092>094-030900-
SOUTH-CENTRAL ILLINOIS

CITY           SKY/WX    TMP DP  RH WIND       PRES   REMARKS
CARBONDALE     CLEAR     40  39  97 CALM      29.99S
CAIRO*         CLEAR     41  40  95 CALM      30.00F
EFFINGHAM*     PTCLDY    44  38  78 NE3       30.04R
MARION         CLEAR     44  42  93 CALM      30.00S
MT. VERNON     CLEAR     40  40 100 CALM      30.00F
CENTRALIA*     CLEAR     40  38  93 SE5       29.99S
SALEM*         PTCLDY    48  44  85 E5        30.00F
METROPOLIS*    CLEAR     40  40 100 CALM      30.01F
$$

ILZ067-068-072-073-078-083-087-091-030900-
SOUTHEAST ILLINOIS

CITY           SKY/WX    TMP DP  RH WIND       PRES   REMARKS
LAWRENCEVILLE  PTCLDY   N/A N/A N/A NE8       30.04R
FLORA*         PTCLDY    37  37 100 SW5       30.01S WCI  34
FAIRFIELD*     CLEAR     44  40  86 CALM      30.00F
HARRISBURG*    CLEAR     41  38  86 CALM      30.01F
ROBINSON*      PTCLDY    35  35  99 NE3       30.05R
CARMI*         CLEAR     37  36  93 MISG      30.01S
$$

ABBREVIATIONS USED IN REMARKS
   TC - TEMPERATURE IN CELSIUS
  WCI - WIND CHILL INDEX
   HX - HEAT INDEX
  VSB - VISIBILITY
$$




USA.gov is the U.S. government's official web portal to all federal, state and local government web resources and services.